RH
28 22 20 27 45 58 54 49 35 37 27 18 17 18 20 24 21 20 57 59 58 67 75 82 91 96 89 91 88 86 81 77 71 78 73 87 85 80 77 79 82 81 78 79 82 72 73 77 88
26 22 22 47 51 62 55 39 39 38 28 19 18 21 19 23 45 63 63 57 55 66 71 74 86 97 92 91 88 85 80 79 75 74 85 85 78 82 83 74 78 80 83 84 84 72 73 79 74
26 21 34 46 59 56 52 39 39 31 22 18 17 19 22 22 44 60 52 61 65 67 68 68 87 96 93 89 89 85 82 78 78 72 79 82 80 76 84 81 77 81 82 82 89 79 79 79 75
25 25 32 44 43 39 36 34 30 32 21 16 17 22 27 38 41 43 50 61 66 67 62 70 86 93 91 91 89 85 77 81 75 77 74 80 72 74 81 76 78 82 82 81 81 86 81 82 76
26 33 37 36 33 30 25 25 28 30 24 18 16 25 30 46 44 48 51 57 65 69 64 66 75 80 90 89 91 87 79 80 76 74 78 67 85 76 82 80 78 83 86 87 82 82 87 86 88
39 35 37 37 32 26 23 22 24 28 27 18 19 33 35 45 52 50 52 57 62 67 70 68 68 72 83 83 88 85 82 82 78 74 77 74 81 80 86 82 82 85 94 93 86 82 82 89 88
41 47 42 34 34 27 21 23 30 29 25 19 19 34 42 54 50 48 51 54 59 64 71 77 77 79 86 80 84 77 78 79 75 72 82 83 83 78 90 82 85 89 93 91 86 78 79 84 88
45 44 37 34 32 28 24 30 26 22 21 15 21 32 35 46 48 49 51 53 59 63 67 74 74 79 83 76 81 75 70 66 74 75 82 82 79 78 75 78 73 91 94 90 84 78 72 74 84
36 51 48 34 30 27 27 30 25 23 20 19 34 31 35 37 50 52 51 52 58 69 69 71 70 74 78 78 76 78 69 64 74 73 77 74 75 75 71 69 72 73 88 81 78 76 69 66 68
45 59 49 34 27 35 30 30 28 28 30 22 36 52 53 47 56 58 58 58 58 73 74 68 65 66 71 69 69 74 74 66 72 72 73 74 76 72 72 66 78 75 69 71 75 80 69 62 64
45 53 42 37 36 35 30 30 25 26 28 23 23 47 59 59 60 59 56 56 54 53 60 68 65 63 66 67 64 61 64 64 70 77 73 73 74 73 69 71 79 80 78 77 76 73 66 62 50
50 43 40 38 35 32 29 26 29 27 26 23 24 30 63 63 67 63 60 55 56 55 52 53 60 64 65 64 63 64 67 70 67 66 74 72 69 68 65 71 73 80 78 77 72 65 62 64 53
50 46 41 39 38 32 28 31 31 27 24 24 25 48 62 64 62 56 53 52 50 53 52 53 53 55 60 64 65 62 64 71 64 57 66 67 67 69 66 65 70 73 70 67 66 65 67 68 67
42 37 35 32 31 31 31 31 26 25 23 23 24 40 56 63 60 57 54 52 50 48 47 50 53 53 56 60 62 62 57 59 62 60 64 64 65 70 68 68 66 68 65 62 64 66 62 63 65
36 43 40 34 32 31 25 30 27 24 23 24 24 28 32 46 48 56 51 53 50 44 41 42 48 53 56 58 60 61 60 55 57 56 58 63 64 66 68 66 66 65 66 64 65 69 67 66 67
34 36 45 35 34 32 28 43 30 25 28 27 25 27 24 27 25 26 25 28 34 40 41 38 39 46 51 57 60 62 62 58 55 52 53 58 61 63 66 66 67 66 66 65 63 63 64 62 62
46 51 47 41 32 29 30 35 28 24 23 24 25 24 29 33 36 36 34 30 28 27 34 39 38 40 42 50 54 60 64 63 60 59 56 54 56 58 60 62 62 64 66 67 67 62 63 68 67
53 50 45 41 26 36 34 34 29 26 20 23 28 32 36 37 37 40 40 38 35 32 33 37 41 43 48 51 58 61 66 67 66 66 65 63 61 60 60 60 61 63 67 69 70 70 68 67 72
42 39 40 36 30 32 36 33 31 26 28 31 34 37 38 37 35 41 40 40 38 37 32 32 33 39 45 57 62 67 65 67 66 66 67 68 68 68 68 69 69 69 69 71 74 75 76 74 78
41 42 43 36 29 26 28 30 30 21 28 35 38 39 39 40 44 46 43 40 40 40 40 38 36 39 43 50 57 64 64 67 64 63 67 69 71 73 76 77 78 78 78 78 80 82 82 82 81
45 46 41 41 36 32 32 40 23 26 30 34 35 38 39 43 45 50 52 49 41 39 38 38 42 43 41 50 55 59 64 70 67 66 68 67 70 71 72 74 78 80 83 83 84 85 89 84 81
48 37 36 35 39 45 35 52 30 33 35 36 40 41 40 43 48 52 55 51 45 41 37 36 35 36 38 42 46 50 56 58 59 60 60 58 59 60 64 69 75 81 85 87 84 85 88 92 90
39 34 33 33 40 40 39 44 40 36 39 41 44 42 40 45 52 55 56 50 46 42 40 38 37 37 37 36 36 36 38 40 39 39 38 38 38 38 41 40 44 73 88 91 91 89 92 95 97
36 33 44 47 48 57 46 44 41 43 36 40 42 43 42 47 53 54 50 45 43 40 40 39 38 39 39 40 41 42 43 43 43 43 44 45 44 44 44 43 43 43 49 70 86 90 97 96 90
35 46 60 59 63 62 39 43 38 31 37 33 43 46 44 48 53 56 55 52 46 42 40 40 41 44 43 43 45 47 48 49 51 52 52 52 48 45 43 38 37 38 40 43 46 53 74 91 96
39 44 64 64 70 55 34 42 32 30 33 38 42 45 45 50 53 54 53 50 46 43 43 43 45 47 46 45 48 50 52 53 55 56 55 55 48 46 40 38 36 33 33 34 38 48 53 63 70
35 47 40 50 50 55 49 40 26 44 49 47 50 47 46 50 53 54 51 47 44 47 45 47 50 53 54 56 55 57 58 56 55 52 48 44 42 43 41 40 42 43 45 45 44 53 53 55 60
34 34 46 55 54 53 49 40 41 41 50 50 52 49 47 46 53 55 53 48 49 49 54 55 57 57 55 54 53 53 58 55 52 49 49 48 46 46 48 51 53 55 56 55 54 60 60 62 61
39 38 34 46 52 55 54 46 36 36 43 47 49 49 49 51 54 55 53 52 53 59 60 59 55 52 50 50 50 49 52 52 52 52 51 51 51 54 57 59 61 62 61 57 58 60 59 60 64
38 40 38 47 45 53 52 45 30 34 33 38 45 47 48 52 55 56 58 61 65 65 62 59 57 55 53 53 52 51 52 49 46 42 40 41 46 47 50 57 58 56 51 57 63 61 62 64 58
Wind_Speed
20 19 12 3 3 4 3 4 3 5 4 3 0 2 4 2 2 3 4 21 7 21 23 21 18 19 15 14 12 10 10 9 7 7 7 11 8 6 6 5 4 4 4 4 4 6 6 5 8
20 16 4 2 4 2 4 4 2 7 3 5 2 1 2 2 1 3 6 12 13 21 23 21 19 19 16 14 11 10 10 8 8 9 8 10 7 6 6 5 5 4 5 5 6 6 5 4 6
15 7 3 3 3 4 4 3 5 4 5 4 2 3 3 2 1 10 5 17 21 21 21 20 20 19 17 14 12 10 9 8 8 8 7 9 8 6 6 5 7 6 6 4 6 6 5 4 5
8 6 4 3 3 6 4 8 9 4 4 5 3 2 1 2 4 7 14 18 21 20 20 20 21 19 18 16 13 10 11 8 9 9 9 9 7 7 6 7 7 6 6 5 4 6 6 6 7
5 3 3 2 4 4 5 7 8 6 2 2 3 4 2 5 3 13 18 19 22 22 20 20 20 18 19 17 15 11 11 11 9 9 10 9 11 8 8 6 7 6 6 5 6 6 9 8 8
4 3 3 2 5 5 7 8 8 4 4 3 4 7 4 4 12 13 17 18 19 21 21 22 20 18 18 18 15 12 12 12 12 12 12 11 8 8 8 7 7 8 7 7 6 7 9 10 10
4 3 3 4 6 5 5 9 5 6 2 5 5 5 2 5 12 14 17 17 19 20 23 24 21 20 20 19 16 14 13 13 14 14 14 12 10 12 9 7 7 10 10 9 8 9 10 12 12
4 3 1 4 3 5 4 11 7 4 4 2 4 5 5 7 18 16 16 16 20 21 22 24 21 20 22 20 19 16 13 16 18 16 15 15 14 14 12 11 12 12 11 11 11 12 12 13 14
3 3 2 5 3 4 7 7 5 4 4 2 5 2 4 14 21 19 17 17 21 23 24 23 21 21 22 22 19 18 16 19 18 19 19 16 15 16 13 15 14 14 14 14 14 14 14 15 17
4 4 7 6 2 5 8 6 7 7 9 2 3 4 6 24 24 19 15 20 24 26 27 25 23 21 21 20 20 20 19 20 20 21 21 21 17 17 17 17 16 15 17 17 17 16 16 17 20
5 6 5 8 9 6 6 8 3 4 6 5 5 5 5 7 15 15 20 26 30 27 26 28 26 24 22 21 19 19 21 20 23 23 23 22 19 20 20 20 20 20 20 21 19 20 20 20 21
3 8 6 8 7 4 5 4 7 5 8 5 9 6 8 8 9 16 20 27 23 24 27 25 27 27 25 23 21 21 22 23 25 26 24 24 23 22 23 23 23 25 23 22 22 21 22 23 23
4 6 7 12 10 7 7 7 8 6 12 6 9 8 13 10 13 21 25 23 23 25 27 28 27 27 28 27 24 23 25 27 23 25 24 25 25 25 22 25 24 26 24 23 23 22 23 24 23
5 5 7 7 9 5 5 8 2 7 7 9 5 10 9 10 17 16 22 29 28 29 29 28 31 30 28 30 28 27 26 26 24 24 26 26 28 28 28 28 29 30 28 27 26 27 26 26 26
5 6 7 9 6 6 2 8 9 11 5 9 8 9 9 12 7 13 11 20 25 28 28 28 30 31 31 32 32 30 27 27 27 26 26 28 29 32 32 33 33 33 31 29 29 30 29 28 29
2 2 2 5 4 7 8 9 13 9 5 11 10 6 6 5 4 4 5 12 19 23 28 27 28 32 32 33 33 31 30 30 28 28 28 29 31 31 32 33 35 35 33 30 32 33 33 33 33
3 3 5 9 7 3 6 7 11 2 6 7 3 5 5 6 9 13 11 8 9 8 20 26 27 30 31 33 33 33 31 30 31 29 29 31 32 32 32 34 36 36 36 34 34 36 35 34 36
5 4 5 6 4 7 6 11 9 5 4 3 7 6 6 7 6 11 15 14 11 9 11 6 18 25 29 30 32 31 30 31 31 32 32 31 32 31 32 34 36 37 38 38 37 37 36 37 32
4 3 4 8 9 8 8 6 11 3 5 8 6 6 6 5 1 12 17 18 19 19 14 11 14 5 22 26 27 28 30 32 32 33 31 31 31 31 32 34 36 37 38 40 37 36 33 35 31
5 6 9 9 4 1 1 8 7 3 4 5 8 6 5 4 6 10 17 20 24 24 23 19 14 17 7 18 24 19 18 22 30 29 28 28 29 30 31 33 36 37 38 37 36 34 30 28 25
6 8 5 6 6 4 0 6 2 2 3 4 3 4 4 6 7 8 12 19 22 25 25 24 22 20 18 8 9 13 11 9 11 13 17 19 21 24 27 31 35 36 35 35 34 33 30 27 27
8 8 8 3 2 3 2 4 3 4 5 3 5 6 6 7 6 6 9 17 20 22 24 26 27 27 25 22 19 16 12 9 10 12 12 13 13 15 16 19 25 32 35 35 38 35 34 28 24
10 6 3 0 1 3 2 1 6 6 6 7 7 7 6 6 7 6 7 13 17 20 23 24 26 28 27 27 25 23 21 18 17 18 19 20 19 19 20 21 21 19 25 32 34 34 30 29 28
6 4 7 4 2 2 7 7 5 8 11 6 4 6 8 7 6 5 8 13 16 18 20 21 24 25 25 25 25 25 23 22 22 22 22 22 23 23 25 26 26 24 22 23 26 30 30 31 30
5 6 1 1 1 6 1 3 8 8 8 15 11 9 8 7 7 6 6 8 11 15 16 17 20 23 23 24 26 24 23 22 22 21 22 23 25 25 27 27 28 28 28 28 26 25 26 30 31
6 7 5 6 4 4 1 6 6 5 3 9 9 9 8 7 6 6 6 7 9 11 14 17 21 23 23 22 22 21 20 21 21 22 23 23 24 25 27 27 28 28 29 30 31 31 29 27 27
5 4 4 2 2 2 3 6 2 7 8 10 10 8 8 7 6 7 6 8 9 14 16 18 19 21 23 23 22 23 22 23 23 23 23 25 26 28 30 31 31 31 31 31 32 30 31 31 29
4 4 2 2 3 4 4 4 4 2 7 8 8 9 7 6 6 5 4 6 11 17 17 19 19 20 20 20 20 20 21 22 23 24 26 28 30 31 31 31 31 31 32 33 34 31 31 31 30
2 1 2 3 4 4 1 5 5 8 8 11 9 8 9 8 7 5 4 11 17 16 18 17 18 19 19 19 19 19 20 22 24 27 28 29 29 29 28 28 28 28 29 30 31 31 30 29 29
3 6 5 4 3 1 3 5 3 1 7 8 10 8 4 6 7 5 9 17 16 15 15 16 16 17 16 17 18 20 21 24 27 30 30 31 30 31 30 28 28 28 30 29 29 31 30 26 31
Wind_Direction
334 338 331 45 64 66 251 272 271 315 283 229 337 226 149 98 172 217 119 178 179 171 174 176 177 176 173 176 182 180 179 170 170 193 187 154 156 164 160 148 141 144 150 144 144 167 166 159 163
334 338 13 80 97 106 268 251 265 252 259 329 129 68 36 235 140 151 141 180 191 172 176 178 180 173 173 178 182 182 178 175 182 188 192 168 169 156 159 158 170 170 167 164 163 164 159 175 169
339 359 74 94 112 190 213 237 283 290 271 215 167 74 150 220 331 171 183 166 168 172 179 179 182 178 176 179 182 182 182 183 186 197 200 181 174 180 161 172 178 178 183 174 175 159 166 165 184
341 8 22 87 238 256 235 289 285 268 280 224 121 114 353 295 198 187 164 173 172 174 179 182 184 185 184 180 181 185 183 191 200 203 207 185 195 192 190 187 192 196 190 190 195 204 189 194 202
24 59 32 354 274 269 267 257 265 259 260 269 174 203 243 332 172 156 163 175 179 180 181 185 190 196 193 186 185 185 189 193 195 197 209 210 193 197 199 209 204 204 207 216 216 217 215 207 220
23 96 38 293 267 281 291 266 282 222 220 253 151 143 225 196 156 165 168 178 186 183 187 189 193 197 198 190 190 196 195 196 195 203 216 208 195 211 211 237 218 216 223 225 231 232 228 227 227
116 84 213 252 260 317 281 326 264 280 1 267 157 137 278 213 188 170 172 188 189 192 194 195 194 198 198 197 204 211 210 203 204 215 218 220 220 226 222 235 229 222 228 235 242 242 239 232 229
114 97 242 253 255 272 291 328 334 54 287 260 155 188 245 217 181 173 178 193 196 195 194 193 199 204 201 204 212 222 223 206 215 213 224 227 229 237 237 243 238 226 232 244 247 248 243 238 234
111 73 242 252 222 278 308 341 305 284 299 356 329 139 268 166 169 172 182 199 198 201 200 200 203 206 207 209 220 225 227 215 217 219 233 234 239 237 244 240 241 241 239 247 250 251 249 244 238
125 151 224 216 231 284 298 301 307 355 335 305 344 8 123 155 172 175 188 205 200 202 204 207 208 210 209 217 224 226 228 220 219 226 231 239 244 241 247 246 246 248 243 246 252 251 252 248 244
183 201 223 262 255 249 262 293 286 322 312 253 241 203 207 166 187 196 205 209 212 209 213 215 214 214 213 214 215 221 222 223 222 228 231 238 244 246 243 240 241 245 245 251 257 255 249 249 250
193 239 227 271 262 277 252 274 292 222 240 268 287 232 173 194 212 209 215 220 220 219 222 223 223 220 220 221 222 225 226 226 228 230 233 236 240 239 238 240 247 247 248 259 261 262 255 254 253
212 251 263 264 279 247 260 260 247 259 269 309 265 175 194 205 215 222 226 232 231 231 229 225 225 224 223 224 226 230 231 230 235 233 235 236 237 240 243 246 248 246 255 258 257 259 256 253 253
220 226 258 281 271 266 260 275 179 258 285 304 229 232 215 214 220 226 230 234 233 233 233 229 225 225 222 224 225 230 234 235 238 238 238 239 242 244 244 248 250 250 256 259 259 257 259 257 255
242 276 305 256 247 248 297 293 241 263 295 279 249 242 245 235 266 245 275 258 249 243 243 237 231 226 224 227 228 231 238 239 240 244 246 246 247 249 249 250 253 256 263 269 268 264 264 266 264
306 73 305 284 247 244 162 275 276 286 281 263 256 20 333 345 24 27 343 275 266 257 249 246 238 231 229 230 231 235 238 238 244 249 253 254 254 257 258 259 260 264 267 268 265 264 261 261 262
359 245 242 309 220 161 171 257 261 299 352 281 345 116 82 57 38 31 27 18 23 293 256 247 243 235 233 233 235 237 237 240 246 251 256 258 257 257 257 260 266 268 270 268 266 265 262 262 263
204 231 256 242 269 187 184 247 277 319 311 288 116 91 78 65 31 31 36 36 32 34 44 264 250 242 240 239 236 236 239 244 249 254 257 261 262 262 261 263 266 268 269 270 267 264 263 263 263
169 247 276 272 262 172 211 235 261 278 103 114 124 120 110 94 22 50 46 46 51 50 49 47 47 0 241 235 237 239 238 242 247 253 259 263 267 270 267 267 270 270 268 267 266 266 261 261 263
241 283 287 287 290 216 226 264 278 141 166 157 151 142 118 80 39 28 35 41 46 52 52 52 50 38 23 237 238 238 253 258 261 263 265 270 273 276 276 276 277 275 271 268 265 259 256 256 256
224 219 249 231 325 329 45 302 194 12 103 146 141 136 101 82 58 28 23 35 42 44 46 50 53 53 53 53 234 245 253 268 290 297 293 295 294 290 287 284 280 279 271 266 264 262 251 255 259
232 219 234 252 39 240 59 274 282 220 189 165 160 117 93 72 53 40 27 36 43 47 51 52 52 52 52 55 60 60 53 34 5 360 353 352 347 336 325 312 297 284 276 268 269 264 255 250 252
227 189 164 179 98 28 294 78 267 140 227 210 206 147 122 90 85 61 44 54 53 51 49 50 52 52 51 54 55 54 51 42 34 28 24 23 19 17 14 8 360 330 297 278 272 270 258 251 248
151 91 38 45 73 306 222 169 259 189 210 194 193 170 141 123 111 94 72 63 56 54 53 52 52 49 46 46 45 42 39 33 30 26 24 23 19 15 11 5 5 4 354 331 303 290 277 269 269
85 82 336 321 318 226 144 136 252 214 196 188 168 172 159 149 138 110 90 69 61 55 52 52 51 49 48 48 46 42 43 41 38 30 21 15 9 4 0 357 353 350 346 342 339 330 313 297 287
181 157 163 206 199 239 80 230 251 248 121 120 145 150 162 159 137 138 133 104 69 55 47 50 59 55 45 40 39 37 36 32 29 22 16 11 5 359 353 351 348 345 342 340 339 336 330 319 308
190 179 191 138 14 39 225 284 320 33 96 123 139 154 170 171 165 156 136 93 73 54 64 72 64 52 44 40 37 35 30 24 18 12 9 4 358 352 347 345 342 339 337 336 335 331 326 324 319
138 166 96 354 198 242 290 278 247 130 148 140 160 177 189 185 161 142 132 113 79 89 77 67 56 49 41 36 32 26 20 16 10 5 1 356 351 348 345 342 340 337 336 335 332 325 322 320 318
123 232 89 132 140 187 258 269 217 200 192 170 186 196 193 176 169 167 132 91 99 83 73 62 48 39 32 27 23 17 12 8 4 1 357 354 349 347 343 339 336 333 331 328 325 322 319 316 317
197 193 153 133 215 155 153 273 317 186 182 163 200 206 164 170 167 123 105 108 95 84 70 57 45 35 26 20 17 13 8 3 359 356 353 351 349 347 344 341 337 334 330 327 325 320 318 327 317